Petar Popov

Recruteur en chef - Montana
4 Avr 2028
Mardi
Processus

Personnalité

Adaptabilité (6) Ambition (17) Controverse (4) Loyauté (19) Pression (18) Professionnalisme (19) Sportivité (17) Tempérament (16)

Profil

Style d'entraînement Démocratique
Diplôme Continental C
Détermination 2
Gestion des joueurs 3
Motivation 6
Discipline 3
Satisfaction professionnelle
100%
Fatigue
0%
Rôle Recruteur en chef
Salaire 48.8K p/s
Contrat 14.03.2029

Performance

Comportement Bon
Efficacité de l'entraînement
34%
Développement des joueurs
15%
Prévention des blessures
40%
Mise en place tactique
20%

Suivi en cours

69
Joueur Club Statut Capacité Confiance Observé Dernière observation Dernier vote
Juan Camilo Pérez Carabobo Actif 127 / 121 40% 3 17.01.2028 -
Isaac Hayden Leyton Orient Actif 123 / 128 40% 1 17.01.2028 -
Stefan Lončar Akron Actif 119 / 106 40% 1 17.01.2028 -
Yohann Magnin CSKA 1948 Actif 126 / 116 40% 2 15.01.2028 -
Matheus Reis Orenburg Actif 134 / 125 40% 1 15.01.2028 -
Jessy Deminguet FC Metz Actif 129 / 140 40% 1 11.01.2028 -
Archie Collins Peterborough United Actif 117 / 124 40% 1 11.01.2028 -
Jeremy Ngakia Watford Actif 127 / 119 40% 1 11.01.2028 -
Teo Rodríguez Pagano San Lorenzo Actif 115 / 125 40% 1 10.01.2028 -
Tom Hamer Lincoln City Actif 115 / 126 40% 1 10.01.2028 -
Franco Quinteros Estudiantes Actif 117 / 96 40% 1 07.01.2028 -
Franco Malagueño Colegiales Actif 104 / 122 40% 1 07.01.2028 -
Nicolás Paz San Martín SJ Actif 119 / 103 40% 1 07.01.2028 -
João Vale Dobrudzha Actif 83 / 92 79% 1 04.01.2028 Approuver
Chimezie Williams Botev Plovdiv Actif 87 / 107 79% 1 01.01.2028 Approuver
Alejo Dramisino Atlanta Actif 114 / 114 40% 1 29.08.2027 -
Evelio Cardozo Nueva Chicago Actif 97 / 110 40% 1 29.08.2027 -
Chisom Orji Warri Wolves Actif 87 / 90 40% 2 28.08.2027 -
Sipho Mbule Asante Kotoko Actif 121 / 120 40% 1 28.08.2027 -
Shodeinde Moses Ikorodu City Actif 89 / 111 40% 1 28.08.2027 -
Fortune Bassey Rangers International Actif 105 / 108 40% 2 23.08.2027 -
Timothy Zechariah Rivers United Actif 95 / 92 40% 2 23.08.2027 -
Chinemerem Ugwueze Rivers United Actif 101 / 87 40% 1 23.08.2027 -
Silas Nwankwo Bendel Insurance Actif 89 / 116 40% 1 20.08.2027 -
Beryly Lubala Vicenza Actif 109 / 106 40% 1 20.08.2027 -
Giovanni Bruzzaniti Catania Actif 118 / 108 40% 1 19.08.2027 -
Jude Soonsup-Bell Ashanti Gold Actif 90 / 86 40% 1 19.08.2027 -
Pablo Vitali Pontedera Actif 111 / 105 40% 1 19.08.2027 -
Edmund Atiemo Liberty Professionals Actif 110 / 128 40% 1 18.08.2027 -
Eyong Ofem Bayelsa United Actif 103 / 75 40% 1 17.08.2027 -
Manuel Cicconi Sampdoria Actif 121 / 115 40% 1 17.08.2027 -
Tony Springett Lecco Actif 109 / 119 40% 2 15.08.2027 -
Mohamed Mallahi Pro Vercelli Actif 113 / 102 40% 1 14.08.2027 -
Mirko Antonucci Cittadella Actif 127 / 133 40% 1 14.08.2027 -
Kike Pérez Venezia Actif 134 / 122 40% 1 11.08.2027 -
Michele Ambrosini AlbinoLeffe Actif 101 / 115 40% 1 10.08.2027 -
Erickson Gallardo Zamora Actif 126 / 127 40% 1 10.08.2027 -
Joe Powell Rotherham United Actif 111 / 109 40% 1 09.08.2027 -
Brodie Spencer Oxford United Actif 128 / 118 40% 1 09.08.2027 -
Jordan Thomas Cheltenham Town Actif 104 / 87 40% 1 08.08.2027 -
Ilmari Niskanen Barrow AFC Actif 104 / 99 40% 1 08.08.2027 -
Xavier Amaechi Plymouth Argyle Actif 108 / 114 40% 2 07.08.2027 -
Liam Mandeville Chesterfield Actif 116 / 117 40% 1 07.08.2027 -
Ar'jany Martha Rotherham United Actif 111 / 106 40% 1 06.08.2027 -
Adam Phillips Gillingham Actif 117 / 118 40% 2 05.08.2027 -
Armando Dobra Chesterfield Actif 114 / 115 40% 1 05.08.2027 -
Dan Kemp Stevenage Actif 114 / 105 40% 1 05.08.2027 -
Ryan Glover Barnet Actif 100 / 111 40% 1 04.08.2027 -
Gavin Kilkenny Swindon Town Actif 115 / 110 40% 1 04.08.2027 -
George Hall Port Vale Actif 117 / 131 40% 1 02.08.2027 -
Darragh Burns Grimsby Town Actif 111 / 98 40% 1 02.08.2027 -
Bendrix Parra Actif 82 / 113 40% 1 21.08.2026 -
Lucas Sergi Metropolitanos Actif 107 / 113 40% 1 21.08.2026 -
Martin Smolenski Botev Vratsa Actif 83 / 100 40% 1 20.08.2026 -
Nikolay Zlatev Cherno More Actif 91 / 88 40% 1 20.08.2026 -
Ronaldo Peña Deportivo Lara Actif 87 / 116 40% 1 19.08.2026 -
Ivaylo Mihaylov Dobrudzha Actif 86 / 73 40% 1 18.08.2026 -
Jeriel De Santis Caracas Actif 112 / 120 40% 1 18.08.2026 -
Joël Zwarts CSKA Sofia Actif 112 / 93 40% 2 16.08.2026 -
Vincent Aboubakar Neftchi Actif 115 / 136 40% 1 16.08.2026 -
Emil Stoev Slavia Sofia Actif 96 / 111 40% 2 14.08.2026 -
Ronny Maza Aragua Actif 104 / 82 40% 1 14.08.2026 -
José Martínes CSKA 1948 Actif 116 / 99 40% 1 12.08.2026 -
Alexandr Kokorin Aris Actif 111 / 100 40% 1 12.08.2026 -
Jaze Kabia Grimsby Town Actif 96 / 91 40% 1 09.08.2026 -
Adam Taggart Qarabag Actif 118 / 130 40% 1 07.08.2026 -
Ahmet Arslan Septemvri Actif 95 / 98 40% 1 03.08.2026 -
Joaquín Rivero Instituto Actif 97 / 79 40% 1 03.08.2026 -
Julián Palacios Envigado Actif 102 / 107 40% 1 01.08.2026 -